星链-5345 (STARLINK-5345 )

导读

STARLINK-5345是美国太空探索技术公司Starlink卫星互联网项目的一员,于2023年5月14日发射,属于星链星座组网卫星,旨在为全球提供高速低延迟互联网服务,尤其服务偏远地区与网络基础设施薄弱区域,该卫星入轨后进一步扩充了星链星座的在轨规模,提升了星座的服务覆盖能力。

基本信息
目录编号:
56517
目录名称:
STARLINK-5345
国际标识:
2023-065Q
轨道中心:
EARTH
卫星名称:
星链-5345
卫星全名:
星链-5345 (STARLINK-5345 )
卫星状态:
在轨 (已飞行1209 天)
发射日期:
2023-05-14 UTC
国别 :
美国 (US)
星等 :
--
轨道信息
数据来源 国际轨道数据
星历时间: 2026-09-03T21:46:32+0800
15小时前
查看轨道信息
半长轴: 6861.204km
偏心率: 0.0001559
轨道倾角: 43.005°
近地点辐角 295.042°
升交点赤经 287.982°
平近点角 65.027°
近地点: 481.997km
远地点: 484.137km
周期: 94.267分钟
每日圈数: 15.275741
详细信息
固有亮度:
5
最大亮度:
2.5
卫星平台:
Starlink v1.5
覆盖范围:
全球
运营商:
太空探索技术公司
运营商所在国:
美国
制造商(研发单位):
太空探索技术公司
制造商所在国:
美国
使用方式:
暂无
卫星简介
星链(Starlink)计划是由太空探索技术公司(SpaceX)提出的一个巨型低轨卫星互联网星座项目,计划在2019年至2024年间在太空搭建由约1.2万颗卫星组成的“星链”网络,其中1584颗将部署在地球上空550千米处的近地轨道,并从2020年开始工作。该卫星仍在工作。
2D轨道图
3D轨道图
轨道高度分析图
轨道倾角分析图
轨道综合分析图
查看轨道综合分析图
交会数据列表
事件ID 空间交会对象 最接近时刻(TCA) 交会距离 交会风险概率(CRP) 交会风险指数(CRI) 操作
CDM_260901-203305-651706-329722
OBJECT G (63297)
2026-09-01T
20:33:56+0000
0.897 km
远距离
3.267689E-5 中风险 0.65
CDM_260904-191705-651706-219721
2026-09-04T
19:17:46+0000
0.892 km
远距离
1.896316E-5 中风险 0.61
CDM_260904-205105-651706-219721
2026-09-04T
20:51:55+0000
1.038 km
极远距离
1.126688E-5 中风险 0.56
CDM_260904-101605-321405-651721
2026-09-04T
10:16:33+0000
2.190 km
极远距离
1.490098E-6 低风险 0.38
CDM_260904-174305-651706-219721
2026-09-04T
17:43:37+0000
2.770 km
极远距离
8.125451E-7 极低风险 0.33
CDM_260904-222605-651706-219721
2026-09-04T
22:26:04+0000
2.987 km
极远距离
7.426404E-7 极低风险 0.32